TimeCDT,TemperatureF,Dew PointF,Humidity,Sea Level PressureIn,VisibilityMPH,Wind Direction,Wind SpeedMPH,Gust SpeedMPH,PrecipitationIn,Events,Conditions,WindDirDegrees,DateUTC
12:15 AM,26.6,26.6,100,30.07,7.0,Calm,Calm,-,N/A,,Clear,0,2013-03-15 05:15:00
12:35 AM,26.6,24.8,93,30.07,7.0,Calm,Calm,-,N/A,,Clear,0,2013-03-15 05:35:00
12:55 AM,26.6,26.6,100,30.06,7.0,Calm,Calm,-,N/A,,Clear,0,2013-03-15 05:55:00
1:15 AM,26.6,26.6,100,30.05,5.0,Calm,Calm,-,N/A,,Clear,0,2013-03-15 06:15:00
1:35 AM,26.6,24.8,93,30.05,5.0,Calm,Calm,-,N/A,,Clear,0,2013-03-15 06:35:00
1:55 AM,24.8,24.8,100,30.04,5.0,Calm,Calm,-,N/A,,Clear,0,2013-03-15 06:55:00
2:15 AM,24.8,24.8,100,30.03,5.0,Calm,Calm,-,N/A,,Clear,0,2013-03-15 07:15:00
2:35 AM,26.6,26.6,100,30.03,4.0,Calm,Calm,-,N/A,,Clear,0,2013-03-15 07:35:00
2:55 AM,26.6,26.6,100,30.01,4.0,Calm,Calm,-,N/A,,Clear,0,2013-03-15 07:55:00
3:15 AM,24.8,24.8,100,30.00,5.0,Calm,Calm,-,N/A,,Clear,0,2013-03-15 08:15:00
3:35 AM,24.8,24.8,100,30.00,5.0,Calm,Calm,-,N/A,,Clear,0,2013-03-15 08:35:00
3:55 AM,24.8,24.8,100,29.99,0.5,Calm,Calm,-,N/A,Fog,Light Freezing Fog,0,2013-03-15 08:55:00
4:15 AM,26.6,26.6,100,29.98,2.5,Calm,Calm,-,N/A,,Clear,0,2013-03-15 09:15:00
4:35 AM,26.6,26.6,100,29.98,3.0,Calm,Calm,-,N/A,,Clear,0,2013-03-15 09:35:00
4:55 AM,24.8,24.8,100,29.97,2.0,Calm,Calm,-,N/A,,Mostly Cloudy,0,2013-03-15 09:55:00
5:15 AM,26.6,26.6,100,29.96,4.0,Calm,Calm,-,N/A,,Clear,0,2013-03-15 10:15:00
5:35 AM,26.6,26.6,100,29.95,4.0,Calm,Calm,-,N/A,,Clear,0,2013-03-15 10:35:00
5:55 AM,24.8,24.8,100,29.93,4.0,SSW,3.5,-,N/A,,Clear,210,2013-03-15 10:55:00
6:15 AM,26.6,26.6,100,29.93,4.0,Calm,Calm,-,N/A,,Clear,0,2013-03-15 11:15:00
6:35 AM,26.6,26.6,100,29.92,4.0,Calm,Calm,-,N/A,,Clear,0,2013-03-15 11:35:00
6:55 AM,26.6,26.6,100,29.91,4.0,Calm,Calm,-,N/A,,Clear,0,2013-03-15 11:55:00
7:15 AM,26.6,26.6,100,29.90,5.0,Calm,Calm,-,N/A,,Clear,0,2013-03-15 12:15:00
7:35 AM,26.6,26.6,100,29.89,5.0,Calm,Calm,-,N/A,,Clear,0,2013-03-15 12:35:00
7:55 AM,28.4,28.4,100,29.89,4.0,Calm,Calm,-,N/A,,Clear,0,2013-03-15 12:55:00
8:15 AM,28.4,28.4,100,29.88,4.0,Calm,Calm,-,N/A,,Clear,0,2013-03-15 13:15:00
8:35 AM,30.2,30.2,100,29.87,4.0,Calm,Calm,-,N/A,,Clear,0,2013-03-15 13:35:00
8:55 AM,32.0,32.0,100,29.87,4.0,Calm,Calm,-,N/A,,Clear,0,2013-03-15 13:55:00
9:15 AM,35.6,33.8,93,29.86,4.0,Calm,Calm,-,N/A,,Clear,0,2013-03-15 14:15:00
9:35 AM,35.6,35.6,100,29.84,5.0,Calm,Calm,-,N/A,,Clear,0,2013-03-15 14:35:00
10:55 AM,53.6,41.0,62,29.79,10.0,South,5.8,-,N/A,,Clear,170,2013-03-15 15:55:00
11:15 AM,55.4,41.0,58,29.78,10.0,South,5.8,-,N/A,,Clear,170,2013-03-15 16:15:00
11:35 AM,60.8,42.8,52,29.77,10.0,SSW,5.8,-,N/A,,Clear,200,2013-03-15 16:35:00
11:55 AM,64.4,42.8,45,29.76,10.0,WSW,13.8,-,N/A,,Clear,240,2013-03-15 16:55:00
12:15 PM,64.4,42.8,45,29.76,10.0,WSW,10.4,-,N/A,,Clear,250,2013-03-15 17:15:00
12:35 PM,64.4,42.8,45,29.76,10.0,West,16.1,-,N/A,,Clear,270,2013-03-15 17:35:00
12:55 PM,64.4,39.2,40,29.75,10.0,West,9.2,-,N/A,,Clear,260,2013-03-15 17:55:00
1:15 PM,64.4,41.0,42,29.75,10.0,WNW,10.4,-,N/A,,Clear,290,2013-03-15 18:15:00
1:35 PM,64.4,41.0,42,29.74,10.0,WNW,5.8,-,N/A,,Clear,290,2013-03-15 18:35:00
1:55 PM,64.4,39.2,40,29.74,10.0,West,10.4,-,N/A,,Clear,280,2013-03-15 18:55:00
2:15 PM,64.4,41.0,42,29.73,10.0,NW,10.4,-,N/A,,Clear,310,2013-03-15 19:15:00
2:35 PM,64.4,42.8,45,29.73,10.0,NW,5.8,-,N/A,,Clear,320,2013-03-15 19:35:00
2:55 PM,62.6,41.0,45,29.72,10.0,NW,5.8,-,N/A,,Clear,320,2013-03-15 19:55:00
3:15 PM,62.6,41.0,45,29.71,10.0,Calm,Calm,-,N/A,,Clear,0,2013-03-15 20:15:00
3:35 PM,62.6,41.0,45,29.70,10.0,NW,3.5,-,N/A,,Clear,310,2013-03-15 20:35:00
3:55 PM,62.6,41.0,45,29.69,10.0,NNW,4.6,-,N/A,,Clear,340,2013-03-15 20:55:00
4:15 PM,62.6,41.0,45,29.70,10.0,WNW,5.8,-,N/A,,Clear,300,2013-03-15 21:15:00
4:35 PM,62.6,42.8,48,29.70,10.0,WNW,3.5,-,N/A,,Clear,300,2013-03-15 21:35:00
4:55 PM,62.6,42.8,48,29.70,10.0,WNW,4.6,-,N/A,,Clear,290,2013-03-15 21:55:00
5:15 PM,64.4,42.8,45,29.70,10.0,NW,4.6,-,N/A,,Clear,310,2013-03-15 22:15:00
5:35 PM,62.6,42.8,48,29.70,10.0,NNW,6.9,-,N/A,,Clear,330,2013-03-15 22:35:00
6:15 PM,60.8,42.8,52,29.70,10.0,North,8.1,-,N/A,,Clear,360,2013-03-15 23:15:00
6:35 PM,59.0,42.8,55,29.70,10.0,North,8.1,-,N/A,,Clear,350,2013-03-15 23:35:00
6:55 PM,57.2,44.6,63,29.70,10.0,North,6.9,-,N/A,,Clear,360,2013-03-15 23:55:00
7:15 PM,53.6,44.6,72,29.69,10.0,North,8.1,-,N/A,,Clear,10,2013-03-16 00:15:00
7:35 PM,51.8,44.6,76,29.70,10.0,North,8.1,-,N/A,,Clear,10,2013-03-16 00:35:00
7:55 PM,50.0,42.8,76,29.70,10.0,North,6.9,-,N/A,,Clear,10,2013-03-16 00:55:00
8:15 PM,48.2,42.8,82,29.70,10.0,North,8.1,-,N/A,,Clear,360,2013-03-16 01:15:00
8:35 PM,46.4,42.8,87,29.71,10.0,North,6.9,-,N/A,,Clear,360,2013-03-16 01:35:00
8:55 PM,44.6,41.0,87,29.71,10.0,North,5.8,-,N/A,,Clear,360,2013-03-16 01:55:00
9:15 PM,46.4,42.8,87,29.73,10.0,North,5.8,-,N/A,,Clear,360,2013-03-16 02:15:00
9:35 PM,44.6,41.0,87,29.74,10.0,North,11.5,16.1,N/A,,Clear,350,2013-03-16 02:35:00
9:55 PM,42.8,39.2,87,29.75,10.0,North,10.4,-,N/A,,Clear,360,2013-03-16 02:55:00
10:15 PM,42.8,39.2,87,29.76,7.0,North,8.1,-,N/A,,Clear,360,2013-03-16 03:15:00
10:35 PM,41.0,39.2,93,29.77,7.0,North,11.5,-,N/A,,Clear,350,2013-03-16 03:35:00
10:55 PM,41.0,39.2,93,29.78,7.0,North,11.5,-,N/A,,Clear,360,2013-03-16 03:55:00
11:15 PM,39.2,37.4,93,29.79,5.0,North,13.8,-,N/A,,Clear,350,2013-03-16 04:15:00
11:35 PM,39.2,37.4,93,29.80,3.0,North,11.5,16.1,N/A,,Mostly Cloudy,350,2013-03-16 04:35:00
11:55 PM,37.4,37.4,100,29.80,4.0,North,16.1,-,N/A,,Scattered Clouds,360,2013-03-16 04:55:00